Flag for Germany Weather past 2 weeks in Herzogenrath, North Rhine-Westphalia, Germany

Now
85 °F

Scattered clouds.


Feels Like: 88 °F
Forecast: 68 / 86 °F
Wind: 3 mph from West

Location: Maastricht Airport Zuid Limburg

Current Time: Aug 30, 2015 at 6:52:26 PM

Latest Report: Aug 30, 2015 at 6:00 PM


Visibility: 22 mi

Pressure: 29.97 "Hg

Humidity: 59%

Dew point: 69 °F

Location of HerzogenrathLocation

Historic Weather in Herzogenrath — Graph

°F

Herzogenrath temperature yesterday

Maximum temperature yesterday: 77 °F (at 5:00 PM)
Minimum temperature yesterday: 52 °F (at 6:00 AM)
Average temperature yesterday: 65 °F

Past Weeks' High & Low Weather Summary

 TemperatureHumidityPressure
High87 °F (Aug 30, 2:00 PM)98% (Aug 27, 10:00 PM)30.24 "Hg (Aug 27, 10:00 PM)
Low52 °F (Aug 19, 6:00 AM)35% (Aug 23, 2:00 PM)29.50 "Hg (Aug 24, 2:00 PM)
Average64 °F74%29.97 "Hg
* Reported Aug 15 5:00 PM — Aug 30 5:00 PM, Herzogenrath, Weather by CustomWeather, © 2015

Note: Actual official high and low records may vary slightly from our data, if they occured in-between our weather recording intervals... More about our weather records

Advertising

Herzogenrath weather history for previous 24 hours

 ConditionsComfort  
Time TempWeatherWind HumidityBarometerVisibility
5:00 PM
Sun, Aug 30
86 °FPassing clouds.3 mph56%29.98 "Hg18 mi
4:00 PM86 °FSunny.5 mph55%29.98 "Hg25 mi
3:00 PM87 °FSunny.6 mph53%29.98 "Hg22 mi
2:00 PM87 °FPassing clouds.6 mph54%29.98 "Hg19 mi
1:00 PM83 °FPassing clouds.5 mph60%29.99 "Hg17 mi
12:00 PM81 °FSunny.5 mph64%30.00 "Hg17 mi
11:00 AM76 °FSunny.3 mph73%30.01 "Hg12 mi
10:00 AM72 °FSunny.3 mph81%30.01 "Hg7 mi
9:00 AM67 °FPassing clouds.2 mph88%30.03 "Hg6 mi
8:00 AM64 °FPassing clouds.2 mph93%30.03 "Hg4 mi
7:00 AM62 °FFog.3 mph94%30.02 "Hg4 mi
6:00 AM63 °FFog.5 mph92%30.02 "Hg4 mi
5:00 AM62 °FClear.3 mph93%30.01 "Hg5 mi
4:00 AM64 °FFog.2 mph90%30.01 "Hg5 mi
3:00 AM65 °FOvercast.5 mph89%30.02 "Hg7 mi
2:00 AM66 °FPassing clouds.3 mph89%30.05 "Hg7 mi
1:00 AM67 °FPassing clouds.3 mph85%30.06 "Hg8 mi
12:00 AM68 °FPassing clouds.3 mph81%30.07 "Hg9 mi
10:00 PM
Sat, Aug 29
69 °FOvercast.3 mph82%30.09 "Hg16 mi
9:00 PM71 °FPassing clouds.3 mph79%30.09 "Hg22 mi
7:00 PM75 °FPassing clouds.3 mph66%30.10 "Hg19 mi
6:00 PM77 °FScattered clouds.2 mph65%30.10 "Hg17 mi
Weather by CustomWeather, © 2015

See weather overviewHow to use our weather pages